| time (UTC) | temp F | wind direction | speed MPH | gust MPH | rain 1hr in | rain 24hr in | rain mn in | humidity % | barometer mb |
| 20260831111536 | 67 | 184 | 5.0 | 18.0 | 0.00 | 0.56 | 0.31 | 56 | 1011.3 |
| 20260831110030 | 67 | 231 | 3.0 | 13.0 | 0.00 | 0.56 | 0.31 | 58 | 1011.1 |
| 20260831104537 | 67 | 241 | 5.0 | 17.0 | 0.00 | 0.56 | 0.31 | 58 | 1010.7 |
| 20260831103026 | 67 | 255 | 4.0 | 15.0 | 0.02 | 0.56 | 0.31 | 59 | 1010.5 |
| 20260831101524 | 65 | 268 | 9.0 | 18.0 | 0.02 | 0.56 | 0.31 | 60 | 1010.4 |
| 20260831100027 | 63 | 287 | 6.0 | 15.0 | 0.02 | 0.56 | 0.31 | 62 | 1010.2 |
| 20260831094520 | 64 | 255 | 3.0 | 15.0 | 0.02 | 0.56 | 0.31 | 65 | 1010.0 |
| 20260831093019 | 65 | 278 | 6.0 | 15.0 | 0.00 | 0.56 | 0.28 | 63 | 1009.9 |
| 20260831091516 | 65 | 260 | 5.0 | 12.0 | 0.00 | 0.56 | 0.28 | 62 | 1009.8 |
| 20260831090015 | 65 | 255 | 5.0 | 12.0 | 0.00 | 0.56 | 0.28 | 63 | 1009.4 |
| 20260831084513 | 65 | 237 | 4.0 | 14.0 | 0.00 | 0.56 | 0.28 | 63 | 1009.3 |
| 20260831083010 | 64 | 281 | 4.0 | 14.0 | 0.00 | 0.56 | 0.28 | 64 | 1009.2 |
| 20260831081508 | 63 | 263 | 3.0 | 17.0 | 0.00 | 0.56 | 0.28 | 64 | 1009.1 |
| 20260831080005 | 62 | 240 | 4.0 | 12.0 | 0.00 | 0.56 | 0.28 | 65 | 1009.0 |
| 20260831074503 | 62 | 163 | 4.0 | 13.0 | 0.00 | 0.56 | 0.28 | 66 | 1008.8 |
| 20260831073002 | 61 | 179 | 7.0 | 17.0 | 0.00 | 0.56 | 0.28 | 67 | 1008.8 |
| 20260831071607 | 61 | 223 | 3.0 | 15.0 | 0.00 | 0.56 | 0.28 | 68 | 1008.7 |
| 20260831070125 | 61 | 253 | 6.0 | 14.0 | 0.00 | 0.56 | 0.28 | 69 | 1008.6 |
| 20260831064557 | 60 | 200 | 5.0 | 12.0 | 0.02 | 0.56 | 0.28 | 70 | 1008.4 |
| 20260831063054 | 60 | 242 | 4.0 | 15.0 | 0.06 | 0.56 | 0.28 | 71 | 1008.3 |
| 20260831061552 | 60 | 164 | 4.0 | 12.0 | 0.09 | 0.56 | 0.28 | 71 | 1008.3 |
| 20260831060105 | 59 | 168 | 4.0 | 10.0 | 0.13 | 0.56 | 0.28 | 72 | 1008.3 |
| 20260831054548 | 59 | 303 | 3.0 | 8.0 | 0.13 | 0.54 | 0.28 | 72 | 1008.3 |
| 20260831053049 | 59 | 124 | 3.0 | 11.0 | 0.09 | 0.50 | 0.23 | 72 | 1008.3 |
| 20260831051605 | 59 | 215 | 1.0 | 10.0 | 0.11 | 0.47 | 0.20 | 72 | 1007.9 |
| 20260831050047 | 59 | 227 | 2.0 | 7.0 | 0.11 | 0.43 | 0.17 | 72 | 1007.9 |
| 20260831044544 | 59 | 224 | 1.0 | 5.0 | 0.12 | 0.43 | 0.15 | 71 | 1008.1 |
| 20260831043042 | 60 | 191 | 3.0 | 7.0 | 0.13 | 0.42 | 0.14 | 71 | 1008.2 |
| 20260831041541 | 60 | 256 | 4.0 | 16.0 | 0.09 | 0.37 | 0.09 | 71 | 1008.2 |
| 20260831040047 | 60 | 277 | 2.0 | 9.0 | 0.05 | 0.33 | 0.06 | 71 | 1008.2 |
| 20260831034538 | 60 | 264 | 3.0 | 12.0 | 0.02 | 0.31 | 0.03 | 71 | 1008.3 |
| 20260831033036 | 60 | 259 | 2.0 | 12.0 | 0.00 | 0.28 | 0.01 | 71 | 1008.2 |
| 20260831031535 | 59 | 158 | 3.0 | 9.0 | 0.00 | 0.28 | 0.01 | 71 | 1008.2 |
| 20260831030035 | 59 | 237 | 1.0 | 5.0 | 0.00 | 0.28 | 0.01 | 71 | 1008.1 |
| 20260831024533 | 59 | 195 | 1.0 | 5.0 | 0.00 | 0.32 | 0.01 | 71 | 1008.4 |
| 20260831023038 | 60 | 219 | 2.0 | 8.0 | 0.00 | 0.32 | 0.01 | 71 | 1008.3 |
| 20260831021548 | 60 | 184 | 1.0 | 7.0 | 0.00 | 0.32 | 0.01 | 71 | 1008.3 |
| 20260831020028 | 60 | 200 | 1.0 | 7.0 | 0.01 | 0.32 | 0.01 | 70 | 1008.4 |
| 20260831014526 | 60 | 240 | 1.0 | 5.0 | 0.01 | 0.34 | 0.01 | 70 | 1008.6 |
| 20260831013025 | 61 | 221 | 2.0 | 13.0 | 0.01 | 0.34 | 0.01 | 70 | 1008.7 |
| 20260831011525 | 61 | 229 | 2.0 | 7.0 | 0.01 | 0.34 | 0.01 | 71 | 1008.9 |
| 20260831010041 | 61 | 245 | 2.0 | 7.0 | 0.00 | 0.33 | 0.00 | 71 | 1008.8 |
| 20260831004523 | 61 | 255 | 1.0 | 9.0 | 0.00 | 0.33 | 0.00 | 71 | 1008.7 |
| 20260831003021 | 60 | 117 | 2.0 | 7.0 | 0.00 | 0.33 | 0.00 | 71 | 1008.8 |
| 20260831001530 | 60 | 344 | 0.0 | 5.0 | 0.00 | 0.33 | 0.00 | 72 | 1008.7 |
| 20260831000020 | 60 | 223 | 2.0 | 7.0 | 0.00 | 0.33 | 0.00 | 72 | 1009.0 |
| 20260830234517 | 60 | 205 | 0.0 | 5.0 | 0.00 | 0.33 | 0.00 | 72 | 1009.1 |
| 20260830233016 | 60 | 210 | 0.0 | 6.0 | 0.00 | 0.33 | 0.00 | 71 | 1009.3 |
| 20260830231526 | 60 | 220 | 0.0 | 3.0 | 0.00 | 0.33 | 0.00 | 71 | 1009.3 |
| 20260830230014 | 61 | 224 | 0.0 | 4.0 | 0.00 | 0.33 | 0.00 | 71 | 1009.5 |
| 20260830224512 | 61 | 247 | 0.0 | 3.0 | 0.00 | 0.33 | 0.00 | 71 | 1009.6 |
| 20260830223016 | 61 | 136 | 1.0 | 5.0 | 0.00 | 0.33 | 0.00 | 71 | 1009.5 |
| 20260830221510 | 61 | 221 | 0.0 | 3.0 | 0.00 | 0.33 | 0.00 | 71 | 1009.6 |
| 20260830220008 | 61 | 240 | 0.0 | 4.0 | 0.00 | 0.33 | 0.00 | 71 | 1009.3 |
| 20260830214507 | 61 | 246 | 0.0 | 3.0 | 0.00 | 0.33 | 0.33 | 71 | 1009.4 |
| 20260830213006 | 61 | 210 | 0.0 | 4.0 | 0.00 | 0.33 | 0.33 | 71 | 1009.3 |
| 20260830211516 | 61 | 193 | 0.0 | 4.0 | 0.00 | 0.33 | 0.33 | 71 | 1009.6 |
| 20260830210008 | 61 | 106 | 0.0 | 5.0 | 0.00 | 0.33 | 0.33 | 71 | 1009.7 |
| 20260830204505 | 61 | 155 | 0.0 | 6.0 | 0.01 | 0.33 | 0.33 | 71 | 1009.9 |
| 20260830203008 | 61 | 237 | 1.0 | 5.0 | 0.01 | 0.33 | 0.33 | 71 | 1009.9 |
| 20260830201501 | 62 | 76 | 1.0 | 9.0 | 0.01 | 0.33 | 0.33 | 71 | 1009.9 |
| 20260830200001 | 62 | 223 | 0.0 | 3.0 | 0.00 | 0.32 | 0.32 | 72 | 1009.9 |
| 20260830194601 | 62 | 153 | 0.0 | 1.0 | 0.00 | 0.32 | 0.32 | 71 | 1009.9 |
| 20260830193059 | 62 | 157 | 0.0 | 2.0 | 0.00 | 0.32 | 0.32 | 71 | 1010.0 |
| 20260830191600 | 62 | 118 | 0.0 | 2.0 | 0.00 | 0.32 | 0.32 | 70 | 1010.1 |
| 20260830190059 | 63 | 226 | 0.0 | 3.0 | 0.00 | 0.32 | 0.32 | 70 | 1010.2 |
| 20260830184558 | 63 | 169 | 0.0 | 1.0 | 0.00 | 0.32 | 0.32 | 70 | 1010.2 |
| 20260830183116 | 63 | 162 | 0.0 | 1.0 | 0.00 | 0.32 | 0.32 | 70 | 1010.2 |
| 20260830181603 | 63 | 177 | 0.0 | 2.0 | 0.21 | 0.32 | 0.32 | 69 | 1010.3 |
| 20260830180108 | 64 | 233 | 0.0 | 2.0 | 0.26 | 0.32 | 0.32 | 69 | 1010.4 |
| 20260830174557 | 63 | 224 | 0.0 | 2.0 | 0.26 | 0.39 | 0.32 | 69 | 1010.4 |
| 20260830173117 | 64 | 274 | 1.0 | 11.0 | 0.25 | 0.39 | 0.31 | 68 | 1010.9 |
| 20260830171601 | 66 | 195 | 3.0 | 15.0 | 0.05 | 0.18 | 0.11 | 67 | 1011.0 |
| 20260830170052 | 67 | 236 | 0.0 | 5.0 | 0.00 | 0.13 | 0.06 | 64 | 1010.6 |
| 20260830164552 | 68 | 244 | 0.0 | 7.0 | 0.00 | 0.15 | 0.06 | 63 | 1010.8 |
| 20260830163053 | 70 | 264 | 1.0 | 8.0 | 0.00 | 0.15 | 0.06 | 60 | 1010.8 |
| 20260830161603 | 71 | 247 | 2.0 | 7.0 | 0.00 | 0.15 | 0.06 | 53 | 1010.8 |
| 20260830160049 | 71 | 136 | 3.0 | 8.0 | 0.00 | 0.15 | 0.06 | 53 | 1011.2 |
| 20260830154549 | 71 | 252 | 2.0 | 9.0 | 0.00 | 0.15 | 0.06 | 54 | 1011.0 |
| 20260830153048 | 70 | 250 | 2.0 | 7.0 | 0.00 | 0.15 | 0.06 | 57 | 1011.2 |
| 20260830151547 | 70 | 296 | 1.0 | 7.0 | 0.00 | 0.15 | 0.06 | 58 | 1011.3 |
| 20260830150047 | 70 | 251 | 2.0 | 7.0 | 0.00 | 0.15 | 0.06 | 58 | 1011.6 |
| 20260830144544 | 71 | 331 | 1.0 | 6.0 | 0.00 | 0.24 | 0.06 | 56 | 1011.5 |
| 20260830143046 | 73 | 244 | 2.0 | 10.0 | 0.00 | 0.24 | 0.06 | 53 | 1011.5 |
| 20260830141542 | 73 | 240 | 3.0 | 8.0 | 0.00 | 0.24 | 0.06 | 53 | 1011.7 |
| 20260830140039 | 73 | 301 | 3.0 | 8.0 | 0.00 | 0.24 | 0.06 | 53 | 1011.8 |
| 20260830134547 | 73 | 259 | 1.0 | 6.0 | 0.00 | 0.24 | 0.06 | 54 | 1011.7 |
| 20260830133038 | 71 | 224 | 2.0 | 8.0 | 0.00 | 0.24 | 0.06 | 56 | 1011.8 |
| 20260830131538 | 70 | 262 | 3.0 | 10.0 | 0.00 | 0.24 | 0.06 | 57 | 1012.1 |
| 20260830130033 | 71 | 254 | 1.0 | 9.0 | 0.00 | 0.24 | 0.06 | 59 | 1012.1 |
| 20260830124532 | 70 | 274 | 4.0 | 13.0 | 0.00 | 0.25 | 0.06 | 58 | 1012.1 |
| 20260830123031 | 70 | 272 | 6.0 | 13.0 | 0.00 | 0.25 | 0.06 | 58 | 1012.0 |
| 20260830121529 | 69 | 271 | 4.0 | 11.0 | 0.00 | 0.25 | 0.06 | 59 | 1012.1 |
| 20260830120027 | 69 | 245 | 5.0 | 12.0 | 0.00 | 0.25 | 0.06 | 58 | 1012.0 |
| 20260830114526 | 69 | 257 | 7.0 | 14.0 | 0.00 | 0.28 | 0.06 | 59 | 1012.1 |
| 20260830113026 | 69 | 246 | 6.0 | 13.0 | 0.00 | 0.28 | 0.06 | 61 | 1012.1 |